FENGYUN 1C DEB, 30555

Orbit data source: Space-Track

FENGYUN 1C DEB, 30555 is space debris in SSO originally from a launch on Mon, 10 May 1999 UTC launched from the Taiyaun Space Center, China (TSC). Fengyun 1C debris stems from the Chinese weather satellite Fengyun-1C, which was intentionally destroyed by a Chinese anti-satellite missile in 2007. This event dramatically increased the amount of space debris, with thousands of trackable fragments posing hazards to satellites and human spaceflight. The Fengyun 1C debris cloud has become a focal point in discussions about space sustainability and the need for international regulations to prevent the creation of new debris.

Loading next visibility...
Identifier
30555, 1999-025AKV
Orbit
SSO
Country
Flag of CNCN / PRC
Related business
Manufacturer
Unknown
Mission
Spacecraft
Bus & Motor
Unknown
Mass
Unknown
Launch date (UTC)
1999-05-10 (27 years ago)
Launch vehicle
Unknown
Launch site
Taiyaun Space Center, China (TSC)
Object type
Payload
Rocket body
Debris
Shape & HBR
Unknown shape, 0.1 m
Radar Cross Section
Medium (>0.1 m² and <1 m²)

Expand to show TLE details & history
Last TLE update: 6 hours ago

TLE from 6 hours ago
0 FENGYUN 1C DEB
1 30555U 99025AKV 26238.12224185  .00001614  00000-0  74377-3 0  9992
2 30555  98.7375 294.2808 0041093 251.6647 163.4573 14.22021721  5792
Epoch: 2026-08-26T02:56Z
TLE epoch observation values (Epoch: 2026-08-26T02:56:01.695Z)
Latitude
54.40815°
Longitude
-96.43984°
Altitude
855.826 km
Speed
7.415 km/s
True Right ascension
18h 47m 47s
True Declination
54° 14' 51"
Sunlit
Object was in daylight at epoch
Visualization orbit readout
Latitude
Unknown
Longitude
Unknown
Altitude
Unknown
Speed
Unknown
Apparent Right ascension
Unknown
Apparent Declination
Unknown
Sunlit
N/A
Visualization observer readout
Local Sidereal Time
00:36:42
Azimuth
Unknown
Elevation
Unknown
Doppler factor
Unknown
Orbital elements
Apogee altitude
845.242 km
Perigee altitude
786.119 km
Semi-major axis
7,193.818 km
Eccentricity
0.00411
Inclination
98.7375°
RAAN
294.2808°
Arg. of periapsis
251.6647°
True anomaly
163.59072°
Mean anomaly
163.4573°
Eccentric anomaly
163.52408°
Mean motion
3.55717 °/min
Orbital period
101.2 mins
BSTAR
0.00074377
Loading maneuver chart data...
Computing Atmospheric mass density...
Loading historical data...
Loading historical data...
Loading historical data...
Loading historical data...
Loading historical data...
Loading historical data...
Loading historical data...

Documentation

Showing up to 5 results
|